User: anonymous   Login
Location: Caltech
(34.1382°N, 118.1253°W)
Time: 02:48:57
(UTC-07:00)
Language:

Cosmos 2333 Rocket - Orbit

View from above orbital plane
View from above orbital plane
View from above satellite
View from above satellite

Ground track
Ground track

The orbit data is extracted from the following two-line orbital elements,

1 24298U 96051B   15146.55846624 -.00000174  00000-0 -67891-4 0  9992
2 24298 070.8452 208.6695 0017916 226.8293 232.7659 14.12418778965552
Epoch (UTC): 26 May 2015 13:24:11
Eccentricity: 0.0017916
inclination: 70.8452°
perigee height: 838 km
apogee height: 864 km
right ascension of ascending node: 208.6695°
argument of perigee: 226.8293°
revolutions per day: 14.12418778
mean anomaly at epoch: 232.7659°
orbit number at epoch: 96555

The dashed part of the orbit path shows where the satellite is in the earth's shadow,  

DLR